Date,TemperatureHighF,TemperatureAvgF,TemperatureLowF,DewpointHighF,DewpointAvgF,DewpointLowF,HumidityHigh,HumidityAvg,HumidityLow,PressureMaxIn,PressureMinIn,WindSpeedMaxMPH,WindSpeedAvgMPH,GustSpeedMaxMPH,PrecipitationSumIn
2013-1-1,14.5,6.8,-0.8,7.4,0.3,-6.9,74,74,73,30.22,30.10,9,2,9,0.00
2013-1-2,22.5,17.1,10.2,14.6,10.0,2.3,74,73,71,30.13,30.01,10,3,10,0.00
2013-1-3,25.5,20.1,8.8,18.5,14.0,2.7,84,77,71,30.19,30.01,13,5,13,0.00
2013-1-4,28.8,19.0,7.9,19.9,11.8,1.7,79,73,69,30.19,30.07,16,6,16,0.00
2013-1-5,35.1,25.5,9.5,31.5,19.8,4.6,89,79,70,30.19,29.86,15,4,15,0.00
2013-1-6,34.9,22.8,12.6,25.4,15.5,6.8,79,73,70,30.27,29.86,13,4,13,0.00
2013-1-7,35.2,25.9,11.3,25.5,18.1,5.6,80,72,67,30.24,30.01,20,5,20,0.00
2013-1-8,37.4,31.0,18.3,28.4,23.7,15.1,90,75,67,30.07,29.92,15,3,15,0.00
2013-1-9,40.3,33.4,22.5,29.8,24.7,15.6,77,70,66,30.45,29.92,22,6,22,0.00
2013-1-10,39.2,30.5,17.4,35.4,24.8,13.5,100,80,66,30.48,29.89,10,2,10,0.00
2013-1-11,45.0,39.3,34.3,44.8,39.3,34.3,100,100,100,29.92,29.62,12,2,12,0.00
2013-1-12,46.8,32.3,21.2,46.2,26.0,13.9,100,78,69,30.07,29.62,24,6,24,0.00
2013-1-13,21.9,16.5,11.7,13.9,9.3,5.1,74,73,71,30.30,29.95,15,5,15,0.00
2013-1-14,24.6,14.9,6.8,16.3,7.8,0.4,76,73,70,30.89,30.22,12,3,12,0.00
2013-1-15,28.2,19.8,11.3,19.2,12.5,5.6,80,73,69,31.01,30.69,13,3,13,0.00
2013-1-16,34.9,26.7,18.0,28.9,18.9,10.8,79,72,69,30.72,30.36,25,5,25,0.00
2013-1-17,30.2,20.2,12.2,19.4,12.5,5.6,74,71,70,31.01,30.69,11,2,11,0.00
2013-1-18,42.4,30.9,11.8,31.8,22.2,5.3,77,70,66,31.04,30.48,21,5,21,0.00
2013-1-19,44.6,36.2,14.4,33.7,27.1,7.3,76,69,64,30.63,30.33,28,7,28,0.00
2013-1-20,17.2,10.6,6.4,8.0,4.0,0.0,74,74,73,30.98,30.57,25,4,25,0.00
2013-1-21,10.4,2.9,-2.2,3.7,-3.3,-8.3,74,74,74,31.54,30.89,15,5,15,0.00
2013-1-22,7.7,1.7,-5.3,1.3,-4.6,-11.5,74,74,74,31.69,31.48,11,3,11,0.00
2013-1-23,18.3,11.7,3.7,11.3,5.0,-2.6,76,74,73,31.75,31.43,17,5,17,0.00
2013-1-24,15.8,6.8,-0.6,8.7,0.3,-6.8,74,74,73,31.99,31.66,13,2,13,0.00
2013-1-25,25.9,19.3,12.9,17.5,12.0,6.3,77,73,70,31.69,31.31,17,4,17,0.00
2013-1-26,23.5,16.8,6.8,15.2,9.5,0.4,74,72,70,31.75,31.54,9,2,9,0.00
2013-1-27,33.6,28.2,21.7,33.6,22.6,14.0,100,80,69,31.69,31.22,12,4,12,0.00
2013-1-28,39.9,35.3,31.6,39.9,32.9,26.3,100,92,70,31.34,31.16,9,1,9,0.00
2013-1-29,52.7,42.4,34.3,52.7,42.4,33.7,100,100,100,31.19,30.89,10,2,10,0.00
2013-1-30,34.5,26.7,14.5,34.5,25.1,8.3,100,94,76,31.01,30.75,14,2,14,0.00
2013-1-31,14.9,9.0,-0.6,8.3,2.9,-6.4,76,76,76,31.51,30.98,17,5,17,0.00